Flag for Saudi Arabia Weather past 2 weeks in Qatif, Saudi Arabia

Now
100 °F

Clear.


Feels Like: 99 °F
Forecast: 84 / 106 °F
Wind: 8 mph from Northeast

Location: King Fahd International Airport

Current Time: Jul 25, 2014 at 7:34:58 PM

Latest Report: Jul 25, 2014 at 7:00 PM


Visibility: 10 mi

Pressure: 29.45 "Hg

Humidity: 22%

Dew point: 55 °F

Location of QatifLocation

Historic Weather in Qatif — Graph

°F

Qatif temperature yesterday

Maximum temperature yesterday: 111 °F (at 1:00 PM)
Minimum temperature yesterday: 86 °F (at 5:00 AM)
Average temperature yesterday: 99 °F

Past Weeks' High & Low Weather Summary

 TemperatureHumidityPressure
High117 °F (Jul 13, 2:00 PM)55% (Jul 17, 11:00 PM)29.59 "Hg (Jul 17, 11:00 PM)
Low82 °F (Jul 16, 5:00 AM)5% (Jul 13, 12:00 PM)29.33 "Hg (Jul 17, 4:00 PM)
Average99 °F17%29.46 "Hg
* Reported Jul 10 6:00 PM — Jul 25 6:00 PM, Qatif, Weather by CustomWeather, © 2014

Note: Actual official high and low records may vary slightly from our data, if they occured in-between our weather recording intervals... More about our weather records

Advertising

Qatif weather history for previous 24 hours

 ConditionsComfort  
Time TempWeatherWind HumidityBarometerVisibility
6:00 PM
Jul 25
106 °FSunny.15 mph14%29.42 "Hg10 mi
5:00 PM109 °FSunny.17 mph12%29.42 "Hg10 mi
4:00 PM109 °FSunny.17 mph12%29.42 "Hg10 mi
3:00 PM111 °FSunny.21 mph11%29.42 "Hg10 mi
2:00 PM111 °FSunny.20 mph11%29.42 "Hg10 mi
1:00 PM113 °FSunny.17 mph12%29.45 "Hg10 mi
12:00 PM111 °FSunny.16 mph11%29.45 "Hg10 mi
11:00 AM111 °FSunny.18 mph11%29.47 "Hg10 mi
10:00 AM106 °FSunny.16 mph12%29.47 "Hg10 mi
9:00 AM104 °FSunny.16 mph12%29.47 "Hg10 mi
8:00 AM99 °FSunny.14 mph13%29.47 "Hg10 mi
7:00 AM91 °FSunny.12 mph14%29.45 "Hg10 mi
6:00 AM91 °FSunny.12 mph14%29.45 "Hg10 mi
5:00 AM91 °FClear.12 mph16%29.42 "Hg10 mi
4:00 AM91 °FClear.14 mph17%29.42 "Hg10 mi
3:00 AM90 °FClear.13 mph21%29.42 "Hg10 mi
2:00 AM91 °FClear.12 mph21%29.42 "Hg10 mi
1:00 AM91 °FClear.9 mph23%29.42 "Hg10 mi
12:00 AM93 °FClear.9 mph21%29.42 "Hg10 mi
11:00 PM
Jul 24
93 °FClear.8 mph24%29.42 "Hg10 mi
10:00 PM93 °FClear.No wind23%29.45 "Hg10 mi
9:00 PM97 °FClear.No wind20%29.42 "Hg10 mi
8:00 PM99 °FClear.No wind18%29.42 "Hg10 mi
7:00 PM102 °FClear.6 mph16%29.42 "Hg10 mi
Weather by CustomWeather, © 2014

See weather overviewHow to use our weather pages